Torna al catalogo

STARLINK-4322

AttivoComunicazioniSSO
NORAD 53078·PAYLOAD·🇺🇸 United States

Lanciato Jul 11, 2022 da Vandenberg Space Force Base

Loading…

Prossimi Passaggi (prossime 24 ore)

TLE

AggiornatoSource: CelesTrak SupGP

Epoca: Sep 14, 2026, 21:46 UTC

1 53078C 22077AM  26257.90743056  .00065746  00000+0  20404-2 0  2573
2 53078  97.2856  72.7606 0001570  94.3956 300.8749 15.33414198    10

Traccia STARLINK-4322 in tempo reale con AllMySat

Download on the App Store